This is the latest recevied weather packets stored in our database for station/object IZ0VWB-3. If no packets are shown the sender has not sent any weather packets the latest 10 day(s).
| Time | Temp. | Humidity | Pressure | Rain* | Wind** | Luminosity | Snow |
|---|---|---|---|---|---|---|---|
| 1777670307 | 10° C | 42% | 1011.5 hPa | 0 mm | - | - | - |
| 1777669712 | 10° C | 42% | 1011.4 hPa | 0 mm | - | - | - |
| 1777669113 | 10.56° C | 40% | 1011.1 hPa | 0 mm | - | - | - |
| 1777668513 | 10.56° C | 40% | 1011 hPa | 0 mm | - | - | - |
| 1777667914 | 11.11° C | 39% | 1011 hPa | 0 mm | - | - | - |
| 1777667312 | 11.11° C | 39% | 1010.9 hPa | 0 mm | - | - | - |
| 1777666713 | 11.67° C | 39% | 1010.7 hPa | 0 mm | - | - | - |
| 1777666112 | 11.67° C | 38% | 1010.8 hPa | 0 mm | - | - | - |
| 1777665512 | 12.22° C | 38% | 1010.7 hPa | 0 mm | - | - | - |
| 1777664913 | 11.67° C | 39% | 1010.6 hPa | 0 mm | - | - | - |
| 1777664313 | 11.67° C | 39% | 1010.4 hPa | 0 mm | - | - | - |
| 1777663713 | 11.67° C | 38% | 1010.4 hPa | 0 mm | - | - | - |
| 1777663114 | 12.22° C | 38% | 1010.2 hPa | 0 mm | - | - | - |
| 1777662513 | 12.22° C | 37% | 1010.1 hPa | 0 mm | - | - | - |
| 1777661913 | 12.78° C | 37% | 1009.9 hPa | 0 mm | - | - | - |
| 1777661313 | 13.33° C | 37% | 1009.4 hPa | 0 mm | - | - | - |
| 1777660713 | 13.33° C | 37% | 1009.4 hPa | 0 mm | - | - | - |
| 1777660113 | 13.89° C | 36% | 1009.4 hPa | 0 mm | - | - | - |
| 1777659512 | 13.89° C | 37% | 1009.5 hPa | 0 mm | - | - | - |
| 1777658912 | 13.89° C | 35% | 1009.4 hPa | 0 mm | - | - | - |
| 1777658311 | 14.44° C | 34% | 1009.2 hPa | 0 mm | - | - | - |
| 1777657712 | 15° C | 33% | 1009.1 hPa | 0 mm | - | - | - |
| 1777657112 | 15° C | 31% | 1009 hPa | 0 mm | - | - | - |
| 1777656513 | 15.56° C | 31% | 1009.1 hPa | 0 mm | - | - | - |
| 1777655913 | 15.56° C | 32% | 1009.1 hPa | 0 mm | - | - | - |
* Rain latest hour (hover to see other rain measurements)
** Current wind speed in m/s (hover to see current wind gust speed)